Location: München
(48.1351°N, 11.5820°E)
Time: 07:25:48
(UTC+02:00)

ISS - Visible Passes

Search period start: 26 June 2022 00:00
Search period end: 06 July 2022 00:00
Orbit: 415 x 421 km, 51.6° (Epoch: 25 June)

Date Brightness Start Highest point End Pass type
(mag) Time Alt. Az. Time Alt. Az. Time Alt. Az.
28 Jun -2.1 04:15:50 10° SSW 04:18:46 25° SE 04:21:45 10° E visible
29 Jun -1.7 03:36:40 14° S 03:38:28 19° SE 03:41:09 10° E visible
30 Jun -1.5 03:00:10 15° SSE 03:00:53 16° SE 03:03:07 10° E visible
30 Jun -3.4 04:34:18 10° WSW 04:37:56 71° SSE 04:41:41 10° ENE visible
01 Jul -1.2 02:26:13 13° SE 02:26:13 13° SE 02:27:41 10° ESE visible
01 Jul -3.3 04:00:03 14° SW 04:03:06 61° SSE 04:06:53 10° ENE visible
02 Jul -3.2 03:28:50 22° SW 03:30:59 53° SSE 03:34:47 10° ENE visible
03 Jul -3.1 03:00:12 31° SSW 03:01:35 49° SSE 03:05:24 10° ENE visible
03 Jul -2.8 04:35:58 10° W 04:39:47 59° NNW 04:43:46 10° ENE visible
04 Jul -3.0 02:34:09 39° S 02:34:57 46° SSE 02:38:46 10° ENE visible
04 Jul -2.8 04:09:26 10° W 04:13:17 61° NNW 04:17:21 10° ENE visible
05 Jul -3.1 02:10:42 44° SSE 02:11:03 46° SSE 02:14:54 10° ENE visible
05 Jul -2.8 03:45:42 10° W 03:49:35 62° NNW 03:53:42 10° ENE visible
